When you browse on this site, cookies collect data to enhance your experience and personalize the content and advertising you see.
Visit our Privacy Policy to learn more. By continuing to use the site, you agree to this use of cookies and data.
  • In Hungary
  • List of Countries
  • For 7 days
  • Water Temperature
  • Weather Map
  • News
  • Weather Widgets
  • user-avatar
    Login

    Hourly Weather Sen-Lui

    Today, 18 November, Monday

    Time Temperature Precipitation Wind Pressure Humidity
    00:00 +29°C° 0 mm 3 mps 733 mmHg 17%
    01:00 +28°C° 0 mm 3 mps 733 mmHg 17%
    02:00 +28°C° 0 mm 3 mps 733 mmHg 18%
    03:00 +27°C° 0 mm 3 mps 733 mmHg 18%
    04:00 +27°C° 0 mm 3 mps 732 mmHg 19%
    05:00 +27°C° 0 mm 3 mps 733 mmHg 19%
    06:00 +27°C° 0 mm 3 mps 733 mmHg 19%
    07:00 +28°C° 0 mm 3 mps 734 mmHg 18%
    08:00 +30°C° 0 mm 4 mps 734 mmHg 16%
    09:00 +34°C° 0 mm 4 mps 734 mmHg 14%
    10:00 +36°C° 0 mm 5 mps 734 mmHg 12%
    11:00 +39°C° 0 mm 5 mps 734 mmHg 11%
    12:00 +40°C° 0 mm 5 mps 733 mmHg 10%
    13:00 +41°C° 0 mm 5 mps 733 mmHg 9%
    14:00 +41°C° 0 mm 4 mps 732 mmHg 9%
    15:00 +41°C° 0 mm 4 mps 732 mmHg 9%
    16:00 +39°C° 0 mm 3 mps 732 mmHg 9%
    17:00 +37°C° 0 mm 3 mps 732 mmHg 10%
    18:00 +35°C° 0 mm 3 mps 732 mmHg 12%
    19:00 +33°C° 0 mm 3 mps 733 mmHg 14%
    20:00 +31°C° 0 mm 3 mps 733 mmHg 14%
    21:00 +31°C° 0 mm 3 mps 733 mmHg 14%
    22:00 +30°C° 0 mm 3 mps 734 mmHg 15%
    23:00 +30°C° 0 mm 3 mps 733 mmHg 15%

    Tomorrow, 19 November, Tuesday

    Time Temperature Precipitation Wind Pressure Humidity
    00:00 +29°C° 0 mm 3 mps 733 mmHg 16%
    01:00 +28°C° 0 mm 3 mps 733 mmHg 16%
    02:00 +28°C° 0 mm 3 mps 733 mmHg 16%
    03:00 +27°C° 0 mm 3 mps 733 mmHg 17%
    04:00 +27°C° 0 mm 2 mps 733 mmHg 17%
    05:00 +27°C° 0 mm 3 mps 734 mmHg 17%
    06:00 +27°C° 0 mm 3 mps 734 mmHg 17%
    07:00 +27°C° 0 mm 3 mps 735 mmHg 17%
    08:00 +30°C° 0 mm 4 mps 735 mmHg 15%
    09:00 +33°C° 0 mm 4 mps 735 mmHg 12%
    10:00 +36°C° 0 mm 4 mps 736 mmHg 10%
    11:00 +37°C° 0 mm 4 mps 735 mmHg 9%
    12:00 +40°C° 0 mm 5 mps 734 mmHg 8%
    13:00 +41°C° 0 mm 5 mps 734 mmHg 7%
    14:00 +41°C° 0 mm 4 mps 733 mmHg 8%
    15:00 +41°C° 0 mm 4 mps 733 mmHg 8%
    16:00 +40°C° 0 mm 4 mps 732 mmHg 8%
    17:00 +37°C° 0 mm 3 mps 733 mmHg 9%
    18:00 +35°C° 0 mm 3 mps 733 mmHg 10%
    19:00 +31°C° 0 mm 3 mps 733 mmHg 12%
    20:00 +31°C° 0 mm 3 mps 733 mmHg 12%
    21:00 +30°C° 0 mm 3 mps 733 mmHg 13%
    22:00 +30°C° 0 mm 3 mps 734 mmHg 13%
    23:00 +30°C° 0 mm 3 mps 734 mmHg 13%

    Day after tomorrow, 20 November, Wednesday

    Time Temperature Precipitation Wind Pressure Humidity
    00:00 +29°C° 0 mm 3 mps 733 mmHg 13%
    01:00 +29°C° 0 mm 3 mps 733 mmHg 13%
    02:00 +29°C° 0 mm 3 mps 733 mmHg 13%
    03:00 +28°C° 0 mm 4 mps 733 mmHg 13%
    04:00 +28°C° 0 mm 4 mps 733 mmHg 13%
    05:00 +28°C° 0 mm 4 mps 734 mmHg 13%
    06:00 +28°C° 0 mm 4 mps 734 mmHg 14%
    07:00 +27°C° 0 mm 4 mps 735 mmHg 14%
    08:00 +30°C° 0 mm 4 mps 735 mmHg 12%
    09:00 +34°C° 0 mm 5 mps 735 mmHg 10%
    10:00 +38°C° 0 mm 6 mps 736 mmHg 9%
    11:00 +39°C° 0 mm 6 mps 735 mmHg 8%
    12:00 +40°C° 0 mm 6 mps 734 mmHg 8%
    13:00 +41°C° 0 mm 6 mps 734 mmHg 8%
    14:00 +41°C° 0 mm 5 mps 733 mmHg 8%
    15:00 +41°C° 0 mm 5 mps 733 mmHg 8%
    16:00 +40°C° 0 mm 4 mps 733 mmHg 8%
    17:00 +37°C° 0 mm 4 mps 733 mmHg 10%
    18:00 +35°C° 0 mm 3 mps 733 mmHg 11%
    19:00 +31°C° 0 mm 3 mps 733 mmHg 13%
    20:00 +31°C° 0 mm 3 mps 734 mmHg 13%
    21:00 +30°C° 0 mm 3 mps 734 mmHg 14%
    22:00 +30°C° 0 mm 3 mps 734 mmHg 14%
    23:00 +29°C° 0 mm 3 mps 734 mmHg 15%

    21 November, Thursday

    Time Temperature Precipitation Wind Pressure Humidity
    00:00 +29°C° 0 mm 3 mps 734 mmHg 16%
    01:00 +28°C° 0 mm 3 mps 734 mmHg 16%
    02:00 +28°C° 0 mm 3 mps 734 mmHg 16%
    03:00 +28°C° 0 mm 4 mps 734 mmHg 17%
    04:00 +28°C° 0 mm 4 mps 734 mmHg 17%
    05:00 +28°C° 0 mm 4 mps 734 mmHg 17%
    06:00 +27°C° 0 mm 4 mps 735 mmHg 17%
    07:00 +27°C° 0 mm 4 mps 735 mmHg 18%
    08:00 +30°C° 0 mm 5 mps 735 mmHg 15%
    09:00 +34°C° 0 mm 6 mps 735 mmHg 13%
    10:00 +36°C° 0 mm 7 mps 736 mmHg 10%
    11:00 +38°C° 0 mm 6 mps 735 mmHg 10%
    12:00 +40°C° 0 mm 6 mps 734 mmHg 9%
    13:00 +41°C° 0 mm 6 mps 734 mmHg 9%
    14:00 +40°C° 0 mm 5 mps 733 mmHg 9%
    15:00 +40°C° 0 mm 5 mps 733 mmHg 9%
    16:00 +40°C° 0 mm 5 mps 733 mmHg 9%
    17:00 +37°C° 0 mm 4 mps 733 mmHg 11%
    18:00 +35°C° 0 mm 4 mps 733 mmHg 12%
    19:00 +33°C° 0 mm 4 mps 733 mmHg 14%
    20:00 +32°C° 0 mm 4 mps 734 mmHg 14%
    21:00 +30°C° 0 mm 4 mps 734 mmHg 15%
    22:00 +29°C° 0 mm 3 mps 734 mmHg 15%
    23:00 +29°C° 0 mm 3 mps 734 mmHg 16%

    22 November, Friday

    Time Temperature Precipitation Wind Pressure Humidity
    00:00 +28°C° 0 mm 3 mps 734 mmHg 16%
    01:00 +28°C° 0 mm 3 mps 733 mmHg 17%
    02:00 +27°C° 0 mm 3 mps 733 mmHg 17%
    03:00 +27°C° 0 mm 3 mps 734 mmHg 17%
    04:00 +27°C° 0 mm 3 mps 734 mmHg 18%
    05:00 +27°C° 0 mm 3 mps 734 mmHg 18%
    06:00 +27°C° 0 mm 4 mps 735 mmHg 18%
    07:00 +27°C° 0 mm 4 mps 735 mmHg 18%
    08:00 +29°C° 0 mm 4 mps 735 mmHg 15%
    09:00 +33°C° 0 mm 5 mps 736 mmHg 13%
    10:00 +35°C° 0 mm 5 mps 736 mmHg 10%
    11:00 +36°C° 0 mm 5 mps 735 mmHg 10%
    12:00 +38°C° 0 mm 6 mps 735 mmHg 9%
    13:00 +39°C° 0 mm 6 mps 734 mmHg 8%
    14:00 +39°C° 0 mm 5 mps 734 mmHg 8%
    15:00 +39°C° 0 mm 5 mps 733 mmHg 8%
    16:00 +37°C° 0 mm 5 mps 733 mmHg 9%
    17:00 +35°C° 0 mm 4 mps 733 mmHg 10%
    18:00 +33°C° 0 mm 4 mps 734 mmHg 11%
    19:00 +30°C° 0 mm 3 mps 734 mmHg 12%
    20:00 +29°C° 0 mm 3 mps 734 mmHg 13%
    21:00 +29°C° 0 mm 3 mps 734 mmHg 13%
    22:00 +28°C° 0 mm 3 mps 735 mmHg 13%
    23:00 +28°C° 0 mm 3 mps 735 mmHg 14%

    23 November, Saturday

    Time Temperature Precipitation Wind Pressure Humidity
    00:00 +27°C° 0 mm 3 mps 734 mmHg 14%
    01:00 +27°C° 0 mm 3 mps 734 mmHg 14%
    02:00 +26°C° 0 mm 3 mps 734 mmHg 14%
    03:00 +26°C° 0 mm 3 mps 735 mmHg 14%
    04:00 +26°C° 0 mm 4 mps 735 mmHg 14%
    05:00 +26°C° 0 mm 4 mps 735 mmHg 14%
    06:00 +25°C° 0 mm 4 mps 735 mmHg 14%
    07:00 +25°C° 0 mm 4 mps 736 mmHg 14%
    08:00 +28°C° 0 mm 5 mps 736 mmHg 13%
    09:00 +30°C° 0 mm 6 mps 736 mmHg 12%
    10:00 +34°C° 0 mm 7 mps 737 mmHg 10%
    11:00 +35°C° 0 mm 7 mps 736 mmHg 9%
    12:00 +38°C° 0 mm 7 mps 735 mmHg 9%
    13:00 +39°C° 0 mm 7 mps 735 mmHg 8%
    14:00 +39°C° 0 mm 7 mps 734 mmHg 8%
    15:00 +39°C° 0 mm 6 mps 734 mmHg 9%
    16:00 +38°C° 0 mm 6 mps 734 mmHg 9%
    17:00 +35°C° 0 mm 5 mps 734 mmHg 11%
    18:00 +33°C° 0 mm 5 mps 734 mmHg 12%
    19:00 +30°C° 0 mm 4 mps 734 mmHg 14%
    20:00 +30°C° 0 mm 4 mps 735 mmHg 14%
    21:00 +29°C° 0 mm 4 mps 735 mmHg 15%
    22:00 +29°C° 0 mm 4 mps 735 mmHg 16%
    23:00 +28°C° 0 mm 4 mps 735 mmHg 16%
    Show more